• Join FlightAware (Why Join?)
  • Login
  • US Flag 
03:51PM EST


 

Airport Tracker/Info


-or-


 

Live Flight TrackerFlight Track Log ✈ SWA1542 ✈ 14-Apr-2013 ✈ KRNO - KLAS

Flight Track Log - Related Links

Times and Time Zones

All times are in EDT time to prevent confusion due to time zone crossing. See the SWA1542 flight status page for this flight to view local times or setup timezone preferences in your user account.

Time Position Orientation Groundspeed Altitude Reporting Facility
EDT Latitude Longitude Course Direction KTS MPH feet Rate Location/Type
01:10AM 39.5500 -119.7500 136° Southeast 201 231 6,600  Level Northern Cal TRACON
01:11AM 39.6167 -119.7167 21° North 271 312 10,500 3,661 Climbing Northern Cal TRACON
01:12AM 39.6281 -119.6361 80° East 300 345 13,800 2,898 Climbing Oakland Center
01:13AM 39.5614 -119.5633 140° Southeast 324 373 16,200 2,479 Climbing Oakland Center
01:14AM 39.4731 -119.4858 146° Southeast 375 432 18,800 2,705 Climbing Oakland Center
01:15AM 39.1425 -119.1530 136° Southeast  Level FlightAware Approximate
01:15AM 39.3756 -119.4028 147° Southeast 413 475 21,700  Level Oakland Center
01:16AM 39.2769 -119.3161 146° Southeast 428 493 24,300 2,777 Climbing Oakland Center
01:17AM 39.1628 -119.1903 139° Southeast 458 527 27,300 2,529 Climbing Oakland Center
01:18AM 39.0683 -119.0719 136° Southeast 474 545 29,400 1,918 Climbing Oakland Center
01:19AM 38.9725 -118.9536 136° Southeast 481 554 31,200 1,623 Climbing Oakland Center
01:20AM 38.8742 -118.8300 136° Southeast 495 570 32,700 893 Climbing Oakland Center
01:21AM 38.7708 -118.7033 136° Southeast 513 590 33,000 149 Climbing Oakland Center
01:22AM 38.6661 -118.5744 136° Southeast 522 601 33,000  Level Oakland Center
01:23AM 38.5644 -118.4497 136° Southeast 511 588 33,000  Level Oakland Center
01:24AM 38.4614 -118.3253 137° Southeast 511 588 33,000  Level Oakland Center
01:25AM 38.3611 -118.2011 136° Southeast 506 582 33,000  Level Oakland Center
01:26AM 38.2492 -118.0667 137° Southeast 503 579 33,000  Level Oakland Center
01:27AM 38.1506 -117.9483 137° Southeast 494 568 33,000  Level Oakland Center
01:28AM 38.0525 -117.8292 136° Southeast 491 565 33,000  Level Oakland Center
01:29AM 37.9478 -117.7242 142° Southeast 487 560 33,000  Level Oakland Center
01:30AM 37.8397 -117.6303 146° Southeast 476 548 33,000  Level Oakland Center
01:31AM 37.7311 -117.5361 146° Southeast 476 548 33,000  Level Oakland Center
01:32AM 37.6214 -117.4419 146° Southeast 479 551 33,000  Level Oakland Center
01:33AM 37.5125 -117.3497 146° Southeast 475 547 33,000  Level Oakland Center
01:34AM 37.3828 -117.2400 146° Southeast 471 542 33,000  Level Oakland Center
01:36AM 37.1669 -117.0600 146° Southeast 466 536 33,000 -231 Level Oakland Center
01:37AM 37.0611 -116.9694 146° Southeast 463 533 32,300 -885 Descending Oakland Center
01:38AM 36.9561 -116.8803 146° Southeast 460 529 31,200 -1,000 Descending Oakland Center
01:39AM 36.8528 -116.7922 146° Southeast 452 520 30,300 -900 Descending Los Angeles Center
01:40AM 36.7586 -116.6883 139° Southeast 458 527 29,400 -885 Descending Los Angeles Center
01:41AM 36.6728 -116.5653 131° Southeast 469 540 28,500 -984 Descending Los Angeles Center
01:42AM 36.5864 -116.4411 131° Southeast 474 545 27,400 -1,659 Descending Los Angeles Center
01:43AM 36.5056 -116.3267 131° Southeast 460 529 25,100 -2,390 Descending Los Angeles Center
01:44AM 36.4139 -116.1967 131° Southeast 446 513 22,500 -2,459 Descending Los Angeles Center
01:45AM 36.3378 -116.0881 131° Southeast 419 482 20,100 -2,351 Descending Los Angeles Center
01:46AM 36.2869 -116.0258 135° Southeast 420 483 18,700 -2,656 Descending Los Angeles Center
01:46AM 36.2617 -115.9814 125° Southeast 414 476 17,400 -2,778 Descending Los Angeles Center
01:47AM 36.2189 -115.9278 135° Southeast 410 472 16,200 -1,377 Descending Los Angeles Center
01:47AM 36.1894 -115.8664 121° Southeast 391 450 16,000 -197 Descending Los Angeles Center
01:48AM 36.1700 -115.8186 117° Southeast 352 405 16,000 98 Level Los Angeles Center
01:48AM 36.1550 -115.7564 107° East 349 402 16,100 -358 Climbing Los Angeles Center
01:49AM 36.1331 -115.6947 114° Southeast 362 417 15,600 -984 Descending Los Angeles Center
01:49AM 36.1158 -115.6358 110° East 376 433 15,100 -1,527 Descending Los Angeles Center
01:50AM 36.0981 -115.5811 112° Southeast 372 428 14,200 -1,770 Descending Los Angeles Center
01:50AM 36.0822 -115.5372 114° Southeast 358 412 13,300 -2,557 Descending Los Angeles Center
01:51AM 36.0619 -115.4733 111° Southeast 331 381 11,600 -2,032 Descending Los Angeles Center
01:51AM 36.0450 -115.4192 111° Southeast 320 368 11,200 -590 Descending Los Angeles Center
01:52AM 36.0317 -115.3822 114° Southeast 275 316 11,000 -492 Descending Los Angeles Center
01:52AM 36.0275 -115.3306 96° East 284 327 10,700 -1,000 Descending Los Angeles Center
01:53AM 36.0233 -115.2839 96° East 292 336 10,000 -1,377 Descending Los Angeles Center
01:53AM 36.0203 -115.2311 94° East 290 334 9,300 -984 Descending Los Angeles Center
01:54AM 36.0178 -115.1875 94° East 283 326 9,000 -590 Descending Los Angeles Center
01:54AM 36.0139 -115.1383 96° East 279 321 8,700 -885 Descending Los Angeles Center
01:55AM 36.0114 -115.0992 95° East 261 300 8,100 -689 Descending Los Angeles Center
01:55AM 36.0261 -115.0644 62° Northeast 252 290 8,000 -436 Descending Los Angeles Center
01:56AM 36.0492 -115.0547 19° North 212 244 7,700 -984 Descending Los Angeles Center
01:56AM 36.0794 -115.0389 23° Northeast 214 246 7,000 -1,200 Descending Los Angeles Center
01:57AM 36.1039 -115.0286 19° North 206 237 6,500 -1,377 Descending Los Angeles Center
01:57AM 36.1339 -115.0231 North 211 243 5,600 -1,254 Descending Los Angeles Center
01:58AM 36.1489 -115.0564 299° West 186 214 5,100 -885 Descending Los Angeles Center
01:58AM 36.1531 -115.0786 283° West 182 209 4,700 -1,180 Descending Los Angeles Center
01:59AM 36.1558 -115.1072 277° West 142 163 3,900 -1,377 Descending Los Angeles Center
01:59AM 36.1511 -115.1214 248° West 160 184 3,300 -885 Descending Los Angeles Center
02:00AM 36.1353 -115.1328 210° Southwest 107 123 3,000 -590 Descending Los Angeles Center
02:00AM 36.1239 -115.1378 200° South 123 142 2,700 -689 Descending Los Angeles Center
02:01AM 36.1067 -115.1500 210° Southwest 111 128 2,300 -393 Descending Los Angeles Center
02:01AM 36.0933 -115.1550 197° South 115 132 2,300  Level Los Angeles Center
02:03AM 36.0801 -115.1523 270° West  Level Estimated